Home > Weather > Belleville > Past weeks

Flag for Canada Weather for the Past 2 Weeks in Belleville, Ontario, Canada

Now
45 °F

Passing clouds.


Feels Like: 41 °F
Forecast: 43 / 70 °F
Wind: 7 mph from Northwest

Location: Trenton

Current Time: May 6, 2016 at 5:30:18 AM

Latest Report: May 6, 2016 at 5:00 AM


Visibility: 15 mi

Pressure: 29.83 "Hg

Humidity: 87%

Dew Point: 41 °F

Location of BellevilleLocation

Historic Weather in Belleville — Graph

°F

Belleville Temperature Yesterday

Maximum temperature yesterday: 64 °F (at 3:00 PM)
Minimum temperature yesterday: 46 °F (at 1:00 AM)
Average temperature yesterday: 54 °F

High & Low Weather Summary for the Past Weeks

 TemperatureHumidityPressure
High68 °F (Apr 21, 1:00 PM)100% (Apr 22, 6:00 AM)30.24 "Hg (Apr 22, 6:00 AM)
Low28 °F (Apr 27, 6:00 AM)27% (Apr 30, 1:00 PM)29.71 "Hg (May 4, 4:00 PM)
Average46 °F67%29.98 "Hg
* Reported Apr 21 4:00 AM — May 6 4:00 AM, Belleville, Weather by CustomWeather, © 2016

Note: Actual official high and low records may vary slightly from our data, if they occured in-between our weather recording intervals... More about our weather records

Advertising

Belleville Weather History for the Previous 24 Hours

Scroll right to see more
 ConditionsComfort  
Time TempWeatherWind HumidityBarometerVisibility
4:00 AM
Fri, May 6
45 °FClear.No wind93%29.83 "Hg9 mi
3:00 AM46 °FPassing clouds.2 mph93%29.82 "Hg9 mi
2:00 AM45 °FPassing clouds.3 mph93%29.82 "Hg7 mi
1:00 AM43 °FFog.2 mph100%29.82 "Hg6 mi
12:00 AM46 °FFog.No wind93%29.81 "Hg6 mi
11:00 PM
Thu, May 5
48 °FPassing clouds.3 mph94%29.81 "Hg15 mi
10:00 PM48 °FPassing clouds.3 mph94%29.81 "Hg15 mi
9:00 PM50 °FPassing clouds.6 mph88%29.79 "Hg15 mi
8:00 PM55 °FScattered clouds.5 mph77%29.78 "Hg15 mi
7:00 PM59 °FScattered clouds.7 mph63%29.77 "Hg15 mi
6:00 PM59 °FScattered clouds.7 mph68%29.77 "Hg15 mi
5:00 PM59 °FScattered clouds.7 mph68%29.78 "Hg15 mi
4:00 PM59 °FScattered clouds.8 mph68%29.78 "Hg15 mi
3:00 PM64 °FPartly sunny.6 mph52%29.79 "Hg15 mi
2:00 PM61 °FPartly sunny.9 mph55%29.80 "Hg15 mi
1:00 PM61 °FPartly sunny.18 mph59%29.81 "Hg15 mi
12:00 PM61 °FPartly sunny.14 mph63%29.82 "Hg15 mi
11:00 AM57 °FPartly sunny.10 mph77%29.83 "Hg15 mi
10:00 AM55 °FPartly sunny.10 mph82%29.83 "Hg15 mi
9:00 AM52 °FDrizzle. Mostly cloudy.10 mph94%29.83 "Hg12 mi
8:00 AM52 °FLow clouds.7 mph88%29.83 "Hg12 mi
7:47 AM52 °FLow clouds.8 mph88%29.82 "Hg12 mi
7:00 AM50 °FOvercast.7 mph94%29.81 "Hg12 mi
6:00 AM50 °FOvercast.5 mph94%29.80 "Hg15 mi
5:00 AM50 °FOvercast.3 mph94%29.79 "Hg15 mi
Weather by CustomWeather, © 2016

See weather overviewHow to use our weather pages